STARLINK-37173, 68536

Orbit data source: Space-Track

STARLINK-37173, 68536 is a payload satellite owned by SpaceX/Seattle (US) in LEO that was launched on Mon, 30 Mar 2026 UTC via an FALCON 9 launch vehicle from the Air Force Eastern Test Range (AFETR). Payload-class satellites include a variety of spacecraft equipped with specific instruments for various scientific and technological missions. These include communications satellites like Starlink; space stations such as the ISS; scientific satellites like the Hubble; Earth observation satellites from companies like Planet Labs, Umbra, and HawkEye 360; GPS; miniature CubeSats for education and research; and military/defense satellites.

Loading next visibility...
Identifier
68536, 2026-068AE
Orbit
LEO
Country
Flag of USUS
Related business
Manufacturer
SpaceX/Seattle
Mission
Operational spacecraft
Bus & Motor
STARLINK V2MO, Unknown motor
Mass
575 kg wet, ~530 kg dry
Launch date (UTC)
2026-03-30 (3 months ago)
Launch vehicle
FALCON 9
Launch site
Air Force Eastern Test Range (AFETR)
Object type
Payload
Rocket body
Debris
Shape & HBR
Unknown shape, 2.5 m
Radar Cross Section
Large (>1 m²)

Expand to show TLE details & history
Last TLE update: 1 day ago

TLE from 1 day ago
0 STARLINK-37173
1 68536U 26068AE  26170.83672322  .00042006  00000-0  75880-3 0  9992
2 68536  53.1582  11.2890 0000984  92.6855 267.4266 15.49326874 12635
Epoch: 2026-06-19T20:04Z
TLE epoch observation values (Epoch: 2026-06-19T20:04:52.886Z)
Latitude
-0.00006°
Longitude
162.00862°
Altitude
419.631 km
Speed
7.661 km/s
True Right ascension
00h 45m 09s
True Declination
0° 00' 00"
Sunlit
Object was in daylight at epoch
Visualization orbit readout
Latitude
Unknown
Longitude
Unknown
Altitude
Unknown
Speed
Unknown
Apparent Right ascension
Unknown
Apparent Declination
Unknown
Sunlit
N/A
Visualization observer readout
Local Sidereal Time
10:19:49
Azimuth
Unknown
Elevation
Unknown
Doppler factor
Unknown
Orbital elements
Apogee altitude
419.622 km
Perigee altitude
418.284 km
Semi-major axis
6,797.09 km
Eccentricity
0.0001
Inclination
53.1582°
RAAN
11.289°
Arg. of periapsis
92.6855°
True anomaly
267.41534°
Mean anomaly
267.4266°
Eccentric anomaly
267.42097°
Mean motion
3.8731 °/min
Orbital period
92.95 mins
BSTAR
0.0007588
Loading maneuver chart data...
Computing Atmospheric mass density...
Loading historical data...
Loading historical data...
Loading historical data...
Loading historical data...
Loading historical data...
Loading historical data...
Loading historical data...

Documentation

Showing up to 5 results
|